TimePST,TemperatureF,Dew PointF,Humidity,Sea Level PressureIn,VisibilityMPH,Wind Direction,Wind SpeedMPH,Gust SpeedMPH,PrecipitationIn,Events,Conditions,WindDirDegrees,DateUTC
12:53 AM,36.0,33.1,89,30.01,10.0,SSW,3.5,-,N/A,,Mostly Cloudy,200,2013-01-10 08:53:00
1:53 AM,35.6,33.8,93,30.01,10.0,South,5.8,-,N/A,,Mostly Cloudy,170,2013-01-10 09:53:00
2:53 AM,36.0,33.1,89,30.02,10.0,South,5.8,-,N/A,,Overcast,190,2013-01-10 10:53:00
3:47 AM,35.6,33.8,93,30.02,10.0,South,3.5,-,N/A,,Overcast,190,2013-01-10 11:47:00
3:53 AM,36.0,34.0,93,30.02,10.0,Calm,Calm,-,N/A,,Overcast,0,2013-01-10 11:53:00
4:53 AM,36.0,34.0,93,30.02,10.0,South,3.5,-,N/A,,Overcast,180,2013-01-10 12:53:00
5:51 AM,37.4,33.8,87,30.03,10.0,South,5.8,-,N/A,,Overcast,170,2013-01-10 13:51:00
5:53 AM,37.0,34.0,89,30.03,10.0,South,6.9,-,N/A,,Overcast,180,2013-01-10 13:53:00
6:12 AM,37.4,33.8,87,30.03,10.0,SSE,6.9,-,N/A,,Overcast,160,2013-01-10 14:12:00
6:53 AM,37.0,34.0,89,30.05,9.0,South,5.8,-,0.01,Rain,Light Rain,170,2013-01-10 14:53:00
7:42 AM,35.6,33.8,93,30.06,8.0,SSW,4.6,-,0.02,Rain,Light Rain,210,2013-01-10 15:42:00
7:53 AM,36.0,34.0,93,30.06,7.0,SSW,5.8,-,0.04,Rain-Snow,Light Rain,200,2013-01-10 15:53:00
8:20 AM,35.6,33.8,93,30.07,7.0,SSW,3.5,-,0.03,Rain-Snow,Light Rain,200,2013-01-10 16:20:00
8:53 AM,35.1,33.1,92,30.08,10.0,Calm,Calm,-,0.03,Rain-Snow,Light Rain,0,2013-01-10 16:53:00
9:53 AM,36.0,34.0,93,30.09,9.0,Calm,Calm,-,0.00,,Overcast,0,2013-01-10 17:53:00
10:01 AM,35.6,33.8,93,30.09,8.0,Calm,Calm,-,0.00,,Light Drizzle,0,2013-01-10 18:01:00
10:53 AM,37.9,35.1,89,30.10,10.0,Calm,Calm,-,0.00,,Overcast,0,2013-01-10 18:53:00
11:53 AM,37.9,34.0,86,30.09,10.0,WNW,4.6,-,N/A,,Overcast,300,2013-01-10 19:53:00
12:53 PM,37.9,34.0,86,30.08,10.0,WNW,4.6,-,N/A,,Overcast,290,2013-01-10 20:53:00
1:53 PM,39.0,34.0,82,30.09,10.0,NW,3.5,-,N/A,,Overcast,320,2013-01-10 21:53:00
2:11 PM,39.2,33.8,81,30.10,10.0,NW,5.8,-,N/A,,Overcast,310,2013-01-10 22:11:00
2:53 PM,39.0,35.1,86,30.10,10.0,Calm,Calm,-,N/A,,Overcast,0,2013-01-10 22:53:00
3:53 PM,39.0,34.0,82,30.11,10.0,Calm,Calm,-,N/A,,Overcast,0,2013-01-10 23:53:00
4:53 PM,39.0,35.1,86,30.11,10.0,WSW,3.5,-,N/A,,Overcast,250,2013-01-11 00:53:00
5:13 PM,39.2,35.6,87,30.11,10.0,WSW,3.5,-,0.00,Rain,Light Rain,240,2013-01-11 01:13:00
5:34 PM,37.4,35.6,93,30.11,10.0,South,4.6,-,0.00,Rain,Light Rain,190,2013-01-11 01:34:00
5:53 PM,37.0,35.1,93,30.10,10.0,SSE,4.6,-,0.00,,Mostly Cloudy,160,2013-01-11 01:53:00
6:53 PM,37.0,35.1,93,30.11,10.0,Calm,Calm,-,N/A,,Mostly Cloudy,0,2013-01-11 02:53:00
7:30 PM,37.4,35.6,93,30.10,10.0,South,3.5,-,N/A,,Overcast,170,2013-01-11 03:30:00
7:53 PM,37.9,35.1,89,30.11,9.0,Calm,Calm,-,0.00,Rain,Light Rain,0,2013-01-11 03:53:00
8:14 PM,37.4,35.6,93,30.11,4.0,WSW,3.5,-,0.05,Rain,Rain,240,2013-01-11 04:14:00
8:43 PM,35.6,33.8,93,30.11,10.0,SW,4.6,-,0.07,Rain-Snow,Light Rain,230,2013-01-11 04:43:00
8:53 PM,35.1,33.1,92,30.11,10.0,Calm,Calm,-,0.07,,Scattered Clouds,0,2013-01-11 04:53:00
9:53 PM,35.1,33.1,92,30.11,10.0,Calm,Calm,-,N/A,,Mostly Cloudy,0,2013-01-11 05:53:00
10:00 PM,35.6,33.8,93,30.11,10.0,Calm,Calm,-,N/A,,Overcast,0,2013-01-11 06:00:00
10:26 PM,35.6,33.8,93,30.11,6.0,Calm,Calm,-,N/A,Rain,Light Rain,0,2013-01-11 06:26:00
10:37 PM,35.6,35.6,100,30.11,10.0,Calm,Calm,-,0.01,,Overcast,0,2013-01-11 06:37:00
10:49 PM,35.6,33.8,93,30.11,10.0,Calm,Calm,-,0.01,,Mostly Cloudy,0,2013-01-11 06:49:00
10:53 PM,35.1,33.1,92,30.12,9.0,Calm,Calm,-,0.01,,Mostly Cloudy,0,2013-01-11 06:53:00
11:29 PM,35.6,33.8,93,30.12,5.0,Calm,Calm,-,N/A,,Overcast,0,2013-01-11 07:29:00
11:53 PM,35.1,33.1,92,30.12,6.0,Calm,Calm,-,N/A,,Mostly Cloudy,0,2013-01-11 07:53:00